TimeCST,TemperatureF,Dew PointF,Humidity,Sea Level PressureIn,VisibilityMPH,Wind Direction,Wind SpeedMPH,Gust SpeedMPH,PrecipitationIn,Events,Conditions,WindDirDegrees,DateUTC
12:53 AM,33.1,32.0,96,30.35,6.0,Calm,Calm,-,N/A,,Clear,0,2012-11-18 06:53:00
1:53 AM,33.1,30.9,92,30.35,5.0,Calm,Calm,-,N/A,,Clear,0,2012-11-18 07:53:00
2:53 AM,32.0,30.9,96,30.34,5.0,Calm,Calm,-,N/A,,Clear,0,2012-11-18 08:53:00
3:53 AM,30.9,30.0,96,30.33,4.0,Calm,Calm,-,N/A,,Clear,0,2012-11-18 09:53:00
4:24 AM,30.9,30.9,100,30.33,1.8,Calm,Calm,-,N/A,,Clear,0,2012-11-18 10:24:00
4:44 AM,30.0,28.9,96,30.33,3.0,Calm,Calm,-,N/A,,Clear,0,2012-11-18 10:44:00
4:53 AM,30.9,28.9,92,30.33,1.5,ENE,3.5,-,N/A,,Partly Cloudy,60,2012-11-18 10:53:00
4:56 AM,30.0,28.9,96,30.33,0.8,ENE,3.5,-,N/A,,Mist,70,2012-11-18 10:56:00
5:04 AM,30.0,28.9,96,30.33,1.2,Calm,Calm,-,N/A,,Partly Cloudy,0,2012-11-18 11:04:00
5:08 AM,30.9,28.9,92,30.34,3.0,Calm,Calm,-,N/A,,Partly Cloudy,0,2012-11-18 11:08:00
5:30 AM,30.9,30.0,96,30.34,1.8,Calm,Calm,-,N/A,,Clear,0,2012-11-18 11:30:00
5:53 AM,30.0,28.0,92,30.34,3.0,Calm,Calm,-,N/A,,Clear,0,2012-11-18 11:53:00
6:49 AM,32.0,30.2,93,30.33,2.0,Calm,Calm,-,N/A,,Clear,0,2012-11-18 12:49:00
6:53 AM,32.0,30.0,92,30.34,4.0,East,3.5,-,N/A,,Clear,90,2012-11-18 12:53:00
7:53 AM,36.0,34.0,93,30.35,3.0,Calm,Calm,-,N/A,,Clear,0,2012-11-18 13:53:00
8:53 AM,46.0,41.0,83,30.35,6.0,East,3.5,-,N/A,,Haze,90,2012-11-18 14:53:00
9:53 AM,52.0,37.9,59,30.37,8.0,Variable,3.5,-,N/A,,Clear,0,2012-11-18 15:53:00
10:53 AM,59.0,37.9,46,30.35,9.0,Variable,3.5,-,N/A,,Clear,0,2012-11-18 16:53:00
11:53 AM,64.0,36.0,35,30.32,10.0,Variable,5.8,16.1,N/A,,Clear,0,2012-11-18 17:53:00
12:53 PM,63.0,35.1,35,30.29,10.0,Calm,Calm,-,N/A,,Clear,0,2012-11-18 18:53:00
1:53 PM,64.0,37.0,37,30.26,10.0,SE,5.8,-,N/A,,Clear,130,2012-11-18 19:53:00
2:53 PM,66.9,34.0,30,30.24,10.0,ESE,4.6,-,N/A,,Clear,120,2012-11-18 20:53:00
3:53 PM,64.9,32.0,29,30.24,10.0,South,8.1,-,N/A,,Clear,170,2012-11-18 21:53:00
4:53 PM,61.0,34.0,36,30.25,10.0,ESE,4.6,-,N/A,,Clear,110,2012-11-18 22:53:00
5:53 PM,57.9,37.0,46,30.24,10.0,ESE,6.9,-,N/A,,Clear,110,2012-11-18 23:53:00
6:53 PM,52.0,37.0,57,30.25,10.0,East,3.5,-,N/A,,Clear,80,2012-11-19 00:53:00
7:53 PM,46.9,37.0,68,30.26,10.0,Calm,Calm,-,N/A,,Clear,0,2012-11-19 01:53:00
8:53 PM,43.0,37.0,80,30.27,8.0,Calm,Calm,-,N/A,,Clear,0,2012-11-19 02:53:00
9:53 PM,43.0,37.0,80,30.27,8.0,East,3.5,-,N/A,,Clear,90,2012-11-19 03:53:00
10:53 PM,39.0,36.0,89,30.26,8.0,East,3.5,-,N/A,,Clear,90,2012-11-19 04:53:00
11:53 PM,39.9,37.0,89,30.27,7.0,East,3.5,-,N/A,,Clear,90,2012-11-19 05:53:00